Location: Gro� Glienicke
(52.4675°N, 13.1079°E)
Time: 19:17:57
(UTC+00:00)

Cosmos 2056 Rocket - Pass Details

Date: 06 July 2020
Orbit: 741 x 801 km, 74.0° (Epoch: 12 August)

Event Time Altitude Azimuth Distance (km) Brightness Sun altitude
Rises 22:21:19 0° 331° (NNW) 3,304 8.3 -14.1°
Reaches altitude 10° 22:23:46 10° 326° (NW) 2,377 7.2 -14.2°
Maximum altitude 22:28:57 48° 253° (WSW) 1,037 4.1 -14.4°
Enters shadow 22:32:25 20° 188° (S) 1,763 4.8 -14.5°
